Radiation Dose at Monitoring Post of Fukushima Daini Nuclear Power Station
Date,Time,MP-1(microSv/h),MP-2(microSv/h),MP-3(microSv/h),MP-4(microSv/h),MP-5(microSv/h),MP-6(microSv/h),MP-7(microSv/h),Wind Direction,Wind Velocity(m/s),Rain
2020/05/05,00:00,0.179,0.164,0.278,0.250,0.261,0.142,0.086,northwest,2.2,No
2020/05/05,00:10,0.178,0.165,0.280,0.254,0.259,0.141,0.085,northwest,3.1,No
2020/05/05,00:20,0.180,0.165,0.278,0.252,0.264,0.141,0.086,west-northwest,4.5,No
2020/05/05,00:30,0.178,0.165,0.280,0.253,0.259,0.141,0.086,west-northwest,5.4,No
2020/05/05,00:40,0.180,0.164,0.279,0.250,0.263,0.142,0.085,northwest,4.7,No
2020/05/05,00:50,0.178,0.165,0.280,0.253,0.260,0.139,0.086,northwest,4.0,No
2020/05/05,01:00,0.179,0.164,0.280,0.250,0.260,0.142,0.085,west-northwest,3.9,No
2020/05/05,01:10,0.177,0.165,0.277,0.252,0.261,0.140,0.085,northwest,2.2,No
2020/05/05,01:20,0.179,0.164,0.279,0.251,0.258,0.141,0.086,west-northwest,1.3,No
2020/05/05,01:30,0.177,0.166,0.277,0.251,0.262,0.141,0.085,northwest,1.2,No
2020/05/05,01:40,0.179,0.164,0.280,0.253,0.261,0.141,0.085,north-northwest,1.5,No
2020/05/05,01:50,0.179,0.165,0.277,0.250,0.260,0.141,0.086,-,CALM,No
2020/05/05,02:00,0.178,0.165,0.279,0.253,0.261,0.141,0.085,northwest,1.8,No
2020/05/05,02:10,0.179,0.166,0.278,0.251,0.259,0.140,0.084,north,2.7,No
2020/05/05,02:20,0.179,0.164,0.279,0.251,0.261,0.141,0.086,northeast,3.1,No
2020/05/05,02:30,0.179,0.166,0.279,0.252,0.260,0.142,0.085,west-northwest,0.9,No
2020/05/05,02:40,0.178,0.165,0.278,0.252,0.261,0.140,0.085,northwest,1.2,No
2020/05/05,02:50,0.179,0.164,0.279,0.253,0.261,0.141,0.085,north-northwest,2.6,No
2020/05/05,03:00,0.178,0.163,0.278,0.251,0.259,0.141,0.085,north-northwest,3.2,No
2020/05/05,03:10,0.179,0.166,0.280,0.253,0.262,0.142,0.085,north,2.8,No
2020/05/05,03:20,0.179,0.165,0.277,0.250,0.260,0.141,0.085,north,2.7,No
2020/05/05,03:30,0.178,0.166,0.279,0.253,0.261,0.141,0.085,north-northwest,4.7,No
2020/05/05,03:40,0.179,0.164,0.278,0.251,0.260,0.142,0.086,north-northwest,3.0,No
2020/05/05,03:50,0.179,0.166,0.280,0.253,0.259,0.142,0.085,north-northwest,2.5,No
2020/05/05,04:00,0.180,0.164,0.277,0.251,0.262,0.141,0.086,north-northwest,1.9,No
2020/05/05,04:10,0.179,0.166,0.279,0.252,0.259,0.141,0.085,north,1.3,No
2020/05/05,04:20,0.179,0.165,0.278,0.251,0.262,0.142,0.085,north,3.3,No
2020/05/05,04:30,0.178,0.166,0.279,0.252,0.259,0.141,0.085,north-northwest,3.6,No
2020/05/05,04:40,0.178,0.165,0.280,0.253,0.262,0.141,0.085,northwest,4.7,No
2020/05/05,04:50,0.179,0.166,0.278,0.252,0.261,0.141,0.086,west-northwest,3.1,No
2020/05/05,05:00,0.179,0.165,0.278,0.253,0.260,0.141,0.086,north,3.1,No
2020/05/05,05:10,0.180,0.165,0.277,0.251,0.262,0.141,0.086,north-northwest,3.4,No
2020/05/05,05:20,0.177,0.165,0.280,0.253,0.259,0.142,0.086,north-northwest,4.6,No
2020/05/05,05:30,0.179,0.164,0.277,0.250,0.264,0.141,0.086,north-northwest,4.5,No
2020/05/05,05:40,0.178,0.164,0.281,0.253,0.259,0.140,0.086,north-northwest,3.5,No
2020/05/05,05:50,0.179,0.165,0.276,0.251,0.262,0.142,0.086,northwest,2.6,No
2020/05/05,06:00,0.178,0.165,0.280,0.253,0.261,0.141,0.086,northwest,2.5,No
2020/05/05,06:10,0.179,0.165,0.278,0.252,0.259,0.141,0.087,northwest,2.0,No
2020/05/05,06:20,0.179,0.164,0.279,0.253,0.261,0.140,0.085,west-northwest,1.7,No
2020/05/05,06:30,0.178,0.165,0.277,0.253,0.259,0.141,0.085,northwest,3.2,No
2020/05/05,06:40,0.179,0.164,0.280,0.251,0.262,0.140,0.086,northwest,3.1,No
2020/05/05,06:50,0.179,0.165,0.278,0.254,0.260,0.142,0.084,west-northwest,4.0,No
2020/05/05,07:00,0.181,0.165,0.281,0.251,0.260,0.141,0.086,west-northwest,4.6,No
2020/05/05,07:10,0.178,0.165,0.279,0.251,0.263,0.141,0.085,northwest,5.2,No
2020/05/05,07:20,0.179,0.165,0.277,0.253,0.260,0.140,0.085,east,2.8,No
2020/05/05,07:30,0.178,0.164,0.279,0.250,0.260,0.141,0.085,north-northwest,1.2,No
2020/05/05,07:40,0.180,0.166,0.279,0.254,0.261,0.140,0.086,north,2.4,No
2020/05/05,07:50,0.179,0.164,0.277,0.253,0.259,0.141,0.086,north-northeast,3.1,No
2020/05/05,08:00,0.178,0.164,0.277,0.249,0.262,0.142,0.086,north-northeast,4.3,No
2020/05/05,08:10,0.179,0.164,0.278,0.250,0.260,0.140,0.085,northeast,3.3,No
2020/05/05,08:20,0.177,0.164,0.277,0.253,0.259,0.141,0.085,east-northeast,4.1,No
2020/05/05,08:30,0.178,0.164,0.276,0.252,0.262,0.141,0.086,northeast,2.1,No
2020/05/05,08:40,0.178,0.165,0.278,0.250,0.260,0.140,0.085,northeast,3.3,No
2020/05/05,08:50,0.178,0.163,0.280,0.250,0.258,0.141,0.084,northeast,3.7,No
2020/05/05,09:00,0.178,0.165,0.276,0.253,0.261,0.141,0.085,east-northeast,3.8,No
2020/05/05,09:10,0.178,0.165,0.276,0.252,0.261,0.141,0.085,northeast,4.1,No
2020/05/05,09:20,0.178,0.163,0.280,0.251,0.258,0.141,0.085,northeast,3.8,No
2020/05/05,09:30,0.179,0.165,0.278,0.252,0.261,0.141,0.086,north-northeast,3.8,No
2020/05/05,09:40,0.180,0.166,0.277,0.254,0.262,0.140,0.086,north-northeast,3.6,No
2020/05/05,09:50,0.177,0.164,0.281,0.252,0.259,0.141,0.085,north-northeast,3.3,No
2020/05/05,10:00,0.178,0.164,0.280,0.250,0.258,0.141,0.085,east-northeast,3.3,No
2020/05/05,10:10,0.180,0.164,0.277,0.252,0.263,0.140,0.086,northeast,2.6,No
2020/05/05,10:20,0.178,0.164,0.281,0.254,0.261,0.142,0.086,north-northeast,2.8,No
2020/05/05,10:30,0.178,0.165,0.279,0.252,0.259,0.141,0.085,north-northeast,2.9,No
2020/05/05,10:40,0.180,0.165,0.279,0.251,0.260,0.140,0.085,north,3.2,No
2020/05/05,10:50,0.177,0.164,0.278,0.252,0.262,0.141,0.086,north-northeast,4.2,No
2020/05/05,11:00,0.177,0.163,0.280,0.254,0.260,0.142,0.085,north-northeast,3.4,No
2020/05/05,11:10,0.180,0.165,0.279,0.253,0.258,0.141,0.086,north-northeast,3.4,No
2020/05/05,11:20,0.179,0.164,0.276,0.251,0.258,0.140,0.085,east-northeast,2.1,No
2020/05/05,11:30,0.178,0.163,0.280,0.253,0.262,0.141,0.085,north-northeast,5.2,No
2020/05/05,11:40,0.180,0.164,0.281,0.254,0.261,0.141,0.085,north-northeast,6.2,No
2020/05/05,11:50,0.178,0.164,0.278,0.252,0.259,0.142,0.086,north-northeast,6.1,No
2020/05/05,12:00,0.177,0.164,0.280,0.250,0.260,0.141,0.085,north-northeast,4.8,No
2020/05/05,12:10,0.178,0.165,0.281,0.253,0.263,0.141,0.086,north-northeast,6.5,No
2020/05/05,12:20,0.179,0.164,0.280,0.254,0.262,0.141,0.086,northeast,5.2,No
2020/05/05,12:30,0.178,0.165,0.278,0.252,0.259,0.140,0.085,north-northeast,4.3,No
2020/05/05,12:40,0.179,0.166,0.281,0.251,0.259,0.141,0.085,northeast,5.7,No
2020/05/05,12:50,0.180,0.164,0.280,0.254,0.264,0.142,0.086,north-northeast,7.1,No
2020/05/05,13:00,0.178,0.164,0.279,0.254,0.263,0.141,0.085,north-northeast,7.9,No
2020/05/05,13:10,0.177,0.166,0.280,0.253,0.260,0.142,0.085,northeast,5.8,No
2020/05/05,13:20,0.180,0.165,0.281,0.253,0.257,0.140,0.086,northeast,5.9,No
2020/05/05,13:30,0.180,0.165,0.279,0.252,0.261,0.142,0.085,northeast,3.7,No
2020/05/05,13:40,0.179,0.166,0.278,0.256,0.263,0.141,0.085,northeast,4.7,No
2020/05/05,13:50,0.178,0.164,0.282,0.254,0.261,0.141,0.086,north-northeast,4.8,No
2020/05/05,14:00,0.180,0.165,0.281,0.251,0.259,0.142,0.085,north-northeast,4.2,No
2020/05/05,14:10,0.179,0.166,0.279,0.253,0.258,0.141,0.085,north-northeast,4.7,No
2020/05/05,14:20,0.178,0.164,0.280,0.254,0.260,0.142,0.086,north-northeast,3.9,No
2020/05/05,14:30,0.180,0.165,0.280,0.254,0.264,0.141,0.085,north-northeast,4.7,No
2020/05/05,14:40,0.179,0.166,0.278,0.251,0.262,0.141,0.085,north-northeast,3.9,No
2020/05/05,14:50,0.178,0.164,0.282,0.254,0.259,0.141,0.086,north-northeast,3.3,No
2020/05/05,15:00,0.179,0.164,0.282,0.256,0.257,0.142,0.086,north-northeast,3.7,No
2020/05/05,15:10,0.179,0.165,0.279,0.252,0.261,0.140,0.085,northeast,2.4,No
2020/05/05,15:20,0.178,0.165,0.282,0.255,0.262,0.142,0.086,north,2.5,No
2020/05/05,15:30,0.180,0.165,0.282,0.256,0.261,0.143,0.086,north,1.6,No
2020/05/05,15:40,0.181,0.165,0.278,0.252,0.259,0.141,0.085,north,1.8,No
2020/05/05,15:50,0.178,0.164,0.282,0.254,0.259,0.141,0.086,east-northeast,0.7,No
2020/05/05,16:00,0.178,0.165,0.280,0.255,0.258,0.141,0.086,north-northeast,1.7,No
2020/05/05,16:10,0.181,0.164,0.283,0.254,0.264,0.142,0.086,east-northeast,0.8,No
2020/05/05,16:20,0.178,0.165,0.281,0.255,0.263,0.142,0.086,-,CALM,No
2020/05/05,16:30,0.180,0.165,0.282,0.254,0.260,0.141,0.086,east,0.9,No
2020/05/05,16:40,0.179,0.166,0.282,0.256,0.263,0.141,0.086,-,CALM,No
2020/05/05,16:50,0.181,0.165,0.281,0.253,0.263,0.141,0.086,east,1.8,No
2020/05/05,17:00,0.180,0.166,0.282,0.255,0.259,0.142,0.086,east,0.9,No
2020/05/05,17:10,0.177,0.165,0.280,0.254,0.261,0.142,0.085,-,CALM,No
2020/05/05,17:20,0.182,0.166,0.282,0.254,0.265,0.142,0.086,-,CALM,No
2020/05/05,17:30,0.179,0.166,0.280,0.254,0.260,0.143,0.086,east,1.1,No
2020/05/05,17:40,0.181,0.166,0.283,0.254,0.260,0.142,0.085,east,1.2,No
2020/05/05,17:50,0.180,0.163,0.280,0.254,0.263,0.142,0.086,southeast,1.0,No
2020/05/05,18:00,0.179,0.165,0.281,0.254,0.261,0.141,0.086,east-northeast,1.7,No
2020/05/05,18:10,0.180,0.165,0.281,0.254,0.264,0.141,0.086,east-northeast,1.7,No
2020/05/05,18:20,0.180,0.166,0.282,0.254,0.261,0.142,0.086,northeast,1.6,No
2020/05/05,18:30,0.181,0.165,0.280,0.254,0.263,0.141,0.086,northeast,2.2,No
2020/05/05,18:40,0.179,0.165,0.281,0.255,0.261,0.141,0.086,northeast,2.0,No
2020/05/05,18:50,0.180,0.164,0.281,0.254,0.263,0.141,0.086,northeast,2.1,No
2020/05/05,19:00,0.179,0.165,0.282,0.256,0.260,0.141,0.086,northeast,3.8,No
2020/05/05,19:10,0.179,0.165,0.281,0.253,0.264,0.142,0.086,north-northeast,4.4,No
2020/05/05,19:20,0.180,0.165,0.280,0.255,0.260,0.142,0.086,northeast,4.9,No
2020/05/05,19:30,0.179,0.166,0.281,0.254,0.263,0.142,0.085,northeast,5.6,No
2020/05/05,19:40,0.179,0.164,0.280,0.255,0.260,0.142,0.085,north-northeast,5.4,No
2020/05/05,19:50,0.178,0.165,0.282,0.254,0.262,0.141,0.085,north-northeast,5.2,No
2020/05/05,20:00,0.180,0.165,0.279,0.255,0.260,0.140,0.086,north,4.6,No
2020/05/05,20:10,0.178,0.165,0.283,0.254,0.263,0.141,0.085,north,4.1,No
2020/05/05,20:20,0.180,0.165,0.280,0.253,0.262,0.141,0.085,north,4.7,No
2020/05/05,20:30,0.179,0.165,0.281,0.254,0.262,0.142,0.086,north-northwest,4.1,No
2020/05/05,20:40,0.180,0.165,0.281,0.252,0.260,0.142,0.085,north-northwest,4.7,No
2020/05/05,20:50,0.179,0.166,0.280,0.254,0.261,0.141,0.085,north,4.3,No
2020/05/05,21:00,0.179,0.164,0.281,0.253,0.261,0.142,0.086,west,3.8,No
2020/05/05,21:10,0.180,0.165,0.281,0.254,0.262,0.141,0.086,north-northwest,3.2,No
2020/05/05,21:20,0.179,0.165,0.283,0.254,0.262,0.142,0.086,northwest,3.5,No
2020/05/05,21:30,0.180,0.165,0.280,0.254,0.260,0.141,0.085,north-northwest,4.3,No
2020/05/05,21:40,0.180,0.166,0.281,0.254,0.262,0.142,0.086,north,3.5,No
2020/05/05,21:50,0.179,0.165,0.282,0.253,0.260,0.141,0.086,north-northwest,4.0,Yes
2020/05/05,22:00,0.180,0.165,0.281,0.253,0.263,0.142,0.086,northwest,4.9,Yes
2020/05/05,22:10,0.179,0.165,0.282,0.253,0.261,0.142,0.086,north-northwest,5.1,Yes
2020/05/05,22:20,0.180,0.164,0.279,0.254,0.263,0.142,0.086,north-northwest,4.6,Yes
2020/05/05,22:30,0.179,0.165,0.282,0.254,0.263,0.141,0.087,north-northwest,5.4,No
2020/05/05,22:40,0.180,0.165,0.282,0.253,0.261,0.143,0.086,north-northwest,5.6,No
2020/05/05,22:50,0.179,0.166,0.280,0.255,0.263,0.142,0.086,north-northwest,4.1,Yes
2020/05/05,23:00,0.179,0.164,0.282,0.252,0.260,0.141,0.085,north-northwest,4.3,No
2020/05/05,23:10,0.179,0.166,0.281,0.255,0.264,0.142,0.086,northwest,4.4,Yes
2020/05/05,23:20,0.180,0.165,0.282,0.254,0.259,0.142,0.086,northwest,3.7,Yes
2020/05/05,23:30,0.181,0.166,0.283,0.255,0.262,0.143,0.086,north-northwest,4.0,Yes
2020/05/05,23:40,0.182,0.168,0.282,0.256,0.263,0.143,0.087,north-northwest,3.5,Yes
2020/05/05,23:50,0.182,0.167,0.283,0.255,0.263,0.143,0.088,north-northwest,2.8,Yes
